Total_Precipitation_Accumulation
0.00 0.01 0.02 0.01 0.01 0.01 0.02 0.05 0.07 0.08 0.08 0.09 0.10 0.09 0.08 0.04 0.02 0.02 0.00 0.00 0.01 0.01 0.02 0.02 0.03 0.04 0.04 0.04 0.04 0.03 0.03 0.03 0.04 0.06 0.09 0.12 0.16 0.26 0.39 0.56 0.77 0.76 0.56
0.00 0.01 0.02 0.02 0.01 0.01 0.02 0.04 0.07 0.09 0.10 0.11 0.11 0.11 0.10 0.06 0.03 0.01 0.00 0.00 0.01 0.01 0.02 0.02 0.03 0.03 0.03 0.02 0.01 0.01 0.01 0.02 0.04 0.08 0.14 0.17 0.22 0.33 0.43 0.54 0.72 0.66 0.44
0.00 0.00 0.01 0.01 0.01 0.01 0.02 0.04 0.06 0.08 0.09 0.10 0.10 0.10 0.07 0.04 0.03 0.01 0.01 0.00 0.01 0.01 0.02 0.02 0.02 0.02 0.01 0.01 0.01 0.00 0.01 0.02 0.04 0.14 0.28 0.36 0.19 0.27 0.40 0.56 0.62 0.40 0.32
0.00 0.00 0.00 0.01 0.01 0.01 0.01 0.02 0.04 0.06 0.07 0.08 0.08 0.07 0.05 0.03 0.02 0.02 0.01 0.01 0.02 0.03 0.03 0.03 0.03 0.02 0.01 0.01 0.00 0.01 0.01 0.03 0.07 0.20 0.44 0.50 0.31 0.19 0.30 0.33 0.37 0.31 0.28
0.00 0.00 0.01 0.01 0.01 0.00 0.01 0.02 0.03 0.04 0.04 0.05 0.05 0.05 0.04 0.03 0.02 0.02 0.02 0.02 0.03 0.04 0.05 0.04 0.04 0.03 0.02 0.01 0.00 0.00 0.02 0.03 0.10 0.20 0.31 0.43 0.51 0.26 0.21 0.22 0.30 0.30 0.22
0.00 0.00 0.01 0.01 0.01 0.01 0.01 0.02 0.02 0.03 0.04 0.03 0.03 0.03 0.02 0.02 0.02 0.03 0.03 0.03 0.04 0.06 0.07 0.06 0.06 0.05 0.03 0.01 0.01 0.01 0.01 0.04 0.12 0.17 0.20 0.24 0.33 0.26 0.19 0.21 0.25 0.26 0.18
0.00 0.00 0.01 0.02 0.02 0.02 0.02 0.03 0.04 0.04 0.04 0.04 0.03 0.03 0.02 0.02 0.03 0.04 0.04 0.05 0.06 0.08 0.09 0.09 0.08 0.08 0.07 0.05 0.03 0.03 0.02 0.05 0.12 0.18 0.17 0.22 0.24 0.20 0.22 0.26 0.28 0.22 0.15
0.00 0.01 0.02 0.03 0.03 0.03 0.03 0.04 0.05 0.05 0.05 0.05 0.05 0.04 0.03 0.03 0.04 0.05 0.06 0.08 0.08 0.09 0.08 0.08 0.08 0.08 0.07 0.07 0.07 0.06 0.05 0.05 0.09 0.15 0.20 0.27 0.32 0.24 0.33 0.32 0.27 0.22 0.18
0.02 0.01 0.02 0.03 0.04 0.04 0.05 0.05 0.06 0.06 0.07 0.07 0.06 0.05 0.04 0.04 0.04 0.05 0.07 0.08 0.10 0.10 0.09 0.09 0.08 0.09 0.10 0.09 0.09 0.07 0.07 0.07 0.10 0.15 0.20 0.27 0.31 0.33 0.53 0.49 0.37 0.31 0.27
0.06 0.04 0.04 0.08 0.13 0.13 0.11 0.10 0.09 0.09 0.09 0.07 0.06 0.05 0.05 0.05 0.07 0.10 0.10 0.11 0.13 0.14 0.14 0.15 0.15 0.17 0.18 0.16 0.15 0.15 0.15 0.10 0.07 0.10 0.16 0.24 0.28 0.43 0.65 0.67 0.58 0.52 0.45
0.07 0.08 0.10 0.15 0.18 0.21 0.22 0.21 0.21 0.21 0.21 0.17 0.17 0.15 0.13 0.14 0.20 0.32 0.32 0.34 0.32 0.32 0.35 0.34 0.35 0.38 0.38 0.26 0.29 0.32 0.23 0.08 0.06 0.09 0.13 0.23 0.32 0.54 0.70 0.76 0.68 0.62 0.60
0.16 0.22 0.24 0.25 0.25 0.26 0.29 0.42 0.49 0.51 0.57 0.51 0.52 0.52 0.49 0.47 0.42 0.40 0.55 0.62 0.69 0.80 0.79 0.78 0.93 0.82 0.61 0.41 0.56 0.63 0.29 0.16 0.12 0.12 0.15 0.26 0.36 0.58 0.75 0.76 0.72 0.65 0.63
0.30 0.29 0.29 0.31 0.37 0.45 0.54 0.60 0.67 0.75 0.88 0.97 1.01 1.02 1.06 0.94 0.76 0.70 0.92 1.04 1.00 1.03 0.92 1.15 1.41 1.02 0.93 0.92 0.91 0.82 0.57 0.43 0.29 0.28 0.35 0.44 0.53 0.73 0.86 0.78 0.77 0.73 0.60
0.49 0.48 0.53 0.52 0.54 0.59 0.66 0.67 0.72 0.74 0.84 0.90 1.01 1.15 1.30 1.30 1.16 1.16 1.29 1.16 1.09 1.10 1.23 1.33 1.45 1.29 1.20 1.20 1.14 1.08 1.02 0.75 0.54 0.51 0.69 0.82 0.84 0.91 0.96 0.91 0.87 0.82 0.72
0.77 0.88 0.92 0.89 0.84 0.78 0.71 0.68 0.70 0.68 0.66 0.68 0.80 1.06 1.25 1.33 1.37 1.46 1.30 1.14 0.99 1.22 1.46 1.48 1.35 1.42 1.41 1.50 1.48 1.44 1.34 0.96 0.71 0.67 0.80 1.13 1.08 0.99 1.01 1.05 1.04 0.98 0.96
1.07 1.22 1.24 1.30 1.26 1.06 0.86 0.74 0.71 0.66 0.69 0.75 0.83 0.95 1.14 1.24 1.31 1.35 1.28 1.17 1.12 1.27 1.44 1.44 1.38 1.53 1.57 1.53 1.26 1.15 1.10 1.07 0.94 0.79 0.83 1.05 1.08 0.89 0.89 1.01 1.07 1.06 1.12
1.47 1.69 1.82 1.83 1.73 1.59 1.38 1.10 0.91 0.82 0.81 0.86 0.91 0.85 0.90 1.01 1.04 1.14 1.14 1.12 1.17 1.22 1.25 1.22 1.21 1.36 1.30 1.18 1.01 0.95 0.95 0.93 0.91 0.87 0.80 0.83 0.94 0.91 0.81 0.84 0.91 0.93 1.00
1.98 2.40 2.59 2.52 2.30 1.91 1.58 1.36 1.21 1.13 1.08 0.96 0.88 0.77 0.66 0.72 0.79 0.86 0.84 0.88 0.94 0.99 1.00 0.95 0.97 1.05 1.10 1.16 1.13 0.98 1.01 1.00 0.92 0.98 1.01 0.88 0.84 0.78 0.95 1.01 0.97 0.89 0.95
3.06 3.53 3.42 2.96 2.60 2.06 1.59 1.36 1.32 1.36 1.28 1.11 0.99 0.86 0.71 0.66 0.70 0.76 0.74 0.73 0.71 0.73 0.76 0.72 0.78 0.87 0.92 0.97 0.94 0.93 0.90 0.88 0.82 0.82 0.95 0.83 0.81 0.82 0.91 0.97 1.03 0.95 1.00
3.52 4.16 4.05 3.37 2.66 2.13 1.78 1.55 1.40 1.35 1.22 1.06 0.97 0.85 0.70 0.62 0.61 0.59 0.57 0.54 0.50 0.51 0.55 0.58 0.67 0.75 0.77 0.83 0.77 0.78 0.76 0.68 0.66 0.67 0.64 0.65 0.69 0.67 0.76 0.88 0.93 0.78 0.91
2.77 3.20 3.17 2.54 2.03 1.72 1.44 1.08 0.91 0.89 0.80 0.71 0.69 0.64 0.61 0.56 0.52 0.47 0.41 0.40 0.37 0.36 0.38 0.40 0.47 0.55 0.59 0.66 0.74 0.71 0.64 0.59 0.58 0.57 0.54 0.51 0.52 0.63 0.73 0.85 0.89 0.83 0.71
1.74 1.79 1.40 1.11 0.93 0.79 0.69 0.52 0.42 0.38 0.36 0.34 0.35 0.35 0.33 0.37 0.40 0.39 0.37 0.36 0.35 0.34 0.33 0.36 0.41 0.44 0.47 0.54 0.60 0.58 0.52 0.50 0.52 0.45 0.51 0.51 0.50 0.65 0.74 0.73 0.78 0.82 0.67
1.07 0.92 0.62 0.48 0.48 0.43 0.34 0.26 0.23 0.21 0.21 0.21 0.22 0.22 0.22 0.23 0.26 0.29 0.33 0.36 0.35 0.31 0.30 0.32 0.34 0.35 0.35 0.38 0.47 0.53 0.47 0.42 0.38 0.39 0.43 0.47 0.53 0.60 0.62 0.71 0.67 0.63 0.66
0.48 0.48 0.52 0.53 0.44 0.33 0.28 0.20 0.15 0.13 0.13 0.13 0.15 0.15 0.17 0.16 0.16 0.18 0.24 0.29 0.30 0.31 0.31 0.25 0.26 0.31 0.31 0.28 0.31 0.39 0.37 0.38 0.42 0.40 0.39 0.45 0.53 0.51 0.51 0.54 0.56 0.57 0.59
0.29 0.47 0.69 0.70 0.49 0.34 0.29 0.24 0.22 0.20 0.18 0.17 0.17 0.18 0.20 0.20 0.20 0.17 0.17 0.22 0.27 0.33 0.38 0.34 0.32 0.30 0.29 0.26 0.26 0.33 0.34 0.30 0.35 0.41 0.39 0.40 0.44 0.38 0.36 0.37 0.38 0.44 0.47
0.27 0.34 0.43 0.52 0.59 0.53 0.47 0.37 0.34 0.33 0.31 0.28 0.26 0.25 0.25 0.26 0.28 0.27 0.27 0.30 0.33 0.33 0.34 0.36 0.39 0.38 0.36 0.33 0.26 0.29 0.42 0.39 0.29 0.34 0.35 0.38 0.39 0.28 0.30 0.34 0.36 0.39 0.46